Location: Unspecified
(0.0000°N, 0.0000°E)
Time: 16:32:14
(UTC+00:00)

Amateur Radio Satellites - All Passes

Search period start: 05 December 2016 16:02
Search period end: 06 December 2016 16:02
Location: Unspecified, 0.0000°N, 0.0000°E

Satellite Date Start Highest point End Downlink Frequencies (MHz)
Time Altitude Azimuth
JUGNU 05 Dec 16:09:59 16:14:10 20° 15° (NNE) 16:18:20 437.505
BEESAT 3 05 Dec 16:18:13 16:21:22 23° 248° (WSW) 16:24:31 437.485
BRITE-PL 05 Dec 16:19:26 16:22:50 24° 78° (ENE) 16:26:14 437.365/2234.400
RS-15 05 Dec 16:30:25 16:38:18 20° 66° (ENE) 16:45:54 29.354- 29.394
AO-7 05 Dec 16:42:25 16:48:15 21° 253° (WSW) 16:54:07 29.400- 29.500
CUBESAT XI-V 05 Dec 16:43:32 16:48:13 82° 282° (WNW) 16:52:56 437.345
BEESAT 2 05 Dec 16:45:08 16:48:33 27° 248° (WSW) 16:51:57 435.950
LilacSat-2 05 Dec 16:57:02 16:57:55 11° 79° (ENE) 16:58:48 437.200
Cosmos 2491 05 Dec 17:08:38 17:12:01 13° 87° (E) 17:15:22 435.465 / 435.565
HORYU 2 05 Dec 17:10:42 17:15:11 71° 258° (WSW) 17:19:39 437.375
YUBILEINY 05 Dec 17:11:22 17:12:13 10° 93° (E) 17:13:04 435.215
CUTE-I 05 Dec 17:13:09 17:17:23 24° 77° (ENE) 17:21:35 437.470
NOAA 18 05 Dec 17:16:26 17:19:13 14° 76° (ENE) 17:22:00 137.9125
STARS 05 Dec 17:31:29 17:32:50 11° 283° (WNW) 17:34:11 437.465
GOMX 1 05 Dec 17:36:46 17:40:57 80° 257° (WSW) 17:45:20 467.674
Cubesat XI-IV 05 Dec 17:37:52 17:43:02 47° 77° (ENE) 17:48:09 437.490
NOAA 15 05 Dec 17:37:56 17:43:04 54° 77° (ENE) 17:48:09 137.62
SO-50 05 Dec 17:45:41 17:48:50 17° 112° (ESE) 17:51:58 436.795
SRMSAT 05 Dec 17:47:30 17:50:33 14° 12° (NNE) 17:53:36 437.500
DOVE 4 05 Dec 17:51:16 17:55:29 47° 78° (ENE) 17:59:55 437.250
JUGNU 05 Dec 17:57:52 18:03:30 47° 20° (NNE) 18:09:08 437.505
BRITE-PL 05 Dec 18:00:02 18:01:06 11° 258° (WSW) 18:02:11 437.365/2234.400
HO-68 05 Dec 18:05:35 18:08:24 13° 75° (ENE) 18:11:13 435.675
CANX-2 05 Dec 18:21:39 18:22:45 11° 78° (ENE) 18:23:50 2200.000
STRAND 1 05 Dec 18:23:30 18:27:51 29° 103° (ESE) 18:32:12 437.568
LilacSat-2 05 Dec 18:28:49 18:31:57 23° 259° (WSW) 18:35:02 437.200
RS-15 05 Dec 18:38:43 18:50:34 69° 250° (WSW) 19:01:51 29.354- 29.394
Cosmos 2504 05 Dec 18:43:34 18:50:07 30° 92° (E) 18:56:58 435.465 / 435.565
SEEDS 05 Dec 18:47:51 18:49:52 13° 79° (ENE) 18:51:52 437.485
CUTE-I 05 Dec 18:53:01 18:57:08 23° 257° (WSW) 19:01:16 437.470
NOAA 18 05 Dec 18:54:28 18:59:34 39° 257° (WSW) 19:04:42 137.9125
Cosmos 2491 05 Dec 18:59:48 19:08:25 70° 267° (W) 19:17:08 435.465 / 435.565
YUBILEINY 05 Dec 18:59:56 19:08:37 78° 272° (W) 19:17:18 435.215
COMPASS 1 05 Dec 19:00:28 19:01:50 11° 78° (ENE) 19:03:11 437.405
AIST 1 05 Dec 19:03:53 19:07:56 42° 94° (E) 19:11:58
AIST 2 05 Dec 19:04:40 19:08:38 42° 248° (WSW) 19:12:35 435.215
CINEMA 3 05 Dec 19:14:58 19:19:36 71° 258° (WSW) 19:24:25 145.822/145.860
Cubesat XI-IV 05 Dec 19:21:23 19:22:47 11° 257° (WSW) 19:24:10 437.490
SO-50 05 Dec 19:25:05 19:29:04 26° 292° (WNW) 19:33:01 436.795
SRMSAT 05 Dec 19:35:08 19:40:17 30° 19° (NNE) 19:45:27 437.500
CUTE 1.7 + AOD 2 05 Dec 19:36:18 19:40:31 64° 259° (W) 19:44:41 437.475
CUBEBUG 2 05 Dec 19:38:22 19:42:47 41° 78° (ENE) 19:47:14 437.445
FUNcube-1 05 Dec 19:40:34 19:41:46 11° 78° (ENE) 19:42:58 145.935
JUGNU 05 Dec 19:46:45 19:52:32 62° 201° (SSW) 19:58:20 437.505
HO-68 05 Dec 19:48:41 19:55:45 64° 256° (WSW) 20:02:48 435.675
CANX-2 05 Dec 19:54:40 19:58:20 28° 258° (WSW) 20:01:58 2200.000
PRISM 05 Dec 19:58:13 20:00:21 14° 102° (ESE) 20:02:30 437.425
AAUSAT CUBESAT 2 05 Dec 20:03:33 20:07:40 79° 79° (ENE) 20:11:47 437.432
STRAND 1 05 Dec 20:03:37 20:06:44 16° 283° (WNW) 20:09:54 437.568
Oscar 11 05 Dec 20:09:50 20:13:30 27° 78° (ENE) 20:17:07 145.826/435.025
PHONESAT 2.4 05 Dec 20:18:29 20:20:47 24° 137° (SE) 20:23:04 2401.200-2431.200
SEEDS 05 Dec 20:21:59 20:25:18 23° 258° (WSW) 20:28:35 437.485
UWE-3 05 Dec 20:22:12 20:26:51 85° 260° (W) 20:31:32 435.000/436.395/437.385
COMPASS 1 05 Dec 20:33:40 20:37:06 25° 258° (WSW) 20:40:32 437.405
Cosmos 2504 05 Dec 20:36:30 20:43:06 31° 274° (W) 20:50:06 435.465 / 435.565
CUSAT 1 05 Dec 20:39:20 20:44:28 62° 87° (E) 20:51:08 437.405
HUMSAT D 05 Dec 21:04:48 21:07:51 19° 79° (ENE) 21:10:53 437.325/437.525
ZACube-1 05 Dec 21:05:19 21:09:36 39° 258° (WSW) 21:13:53 437.345
DELFI C3 05 Dec 21:08:32 21:12:22 49° 78° (ENE) 21:16:09 145.870
PCSat 05 Dec 21:12:10 21:15:36 17° 70° (ENE) 21:19:02 145.827
FUNcube-1 05 Dec 21:13:35 21:17:43 34° 258° (WSW) 21:21:50 145.935
DANDE 05 Dec 21:19:00 21:22:40 33° 90° (E) 21:27:25 436.750
SRMSAT 05 Dec 21:23:38 21:29:34 82° 21° (NNE) 21:35:32 437.500
PRISM 05 Dec 21:32:08 21:35:22 22° 282° (WNW) 21:38:37 437.425
JUGNU 05 Dec 21:37:07 21:41:45 24° 197° (SSW) 21:46:24 437.505
Oscar 11 05 Dec 21:47:35 21:49:20 12° 258° (WSW) 21:51:05 145.826/435.025
UNISAT 6 05 Dec 21:51:38 21:55:54 87° 104° (ESE) 22:00:10 437.425
ESTCUBE 1 05 Dec 22:09:01 22:10:46 12° 78° (ENE) 22:12:31 437.505/2401.250
TIGRISAT 05 Dec 22:22:11 22:26:05 36° 282° (WNW) 22:29:59 435.000
ANTELSAT 05 Dec 22:23:35 22:27:22 32° 282° (WNW) 22:31:10 437.575/2403.000
NANOSAT C BR1 05 Dec 22:38:26 22:41:22 19° 102° (ESE) 22:44:17 145.865
HUMSAT D 05 Dec 22:40:24 22:43:11 17° 258° (WSW) 22:45:56 437.325/437.525
QB50P2 05 Dec 22:43:04 22:46:36 26° 102° (ESE) 22:50:07 145.880/145.840
POLYITAN 1 05 Dec 22:43:43 22:47:09 25° 102° (ESE) 22:50:35 437.675
CUBEBUG 1 05 Dec 22:44:28 22:47:39 20° 78° (ENE) 22:50:49 437.445
PCSat 05 Dec 22:54:00 22:58:43 31° 251° (WSW) 23:03:27 145.827
VELOX 1 05 Dec 22:54:07 22:56:53 16° 78° (ENE) 22:59:39 145.980
QB50P1 05 Dec 22:56:30 23:00:23 38° 102° (ESE) 23:04:17 145.935-145.965
DUCHIFAT 1 05 Dec 23:00:04 23:03:52 34° 102° (ESE) 23:07:40 145.980
DX 1 05 Dec 23:10:37 23:12:12 12° 77° (ENE) 23:13:46 434.975-435.025
SRMSAT 05 Dec 23:13:24 23:18:49 37° 200° (SSW) 23:24:18 437.500
POPSAT HIP 1 05 Dec 23:17:38 23:21:49 80° 102° (ESE) 23:26:01 437.405
UKube-1 05 Dec 23:19:50 23:20:29 10° 78° (ENE) 23:21:08 .
JAS-2 05 Dec 23:28:15 23:33:39 56° 282° (WNW) 23:39:43 435.910
AO-85 05 Dec 23:28:50 23:31:56 16° 113° (ESE) 23:34:59 145.980
JUGNU 05 Dec 23:29:17 23:31:28 12° 189° (S) 23:33:40 437.505
SPROUT 05 Dec 23:30:29 23:34:18 31° 78° (ENE) 23:38:06 437.525
Cosmos 2499 05 Dec 23:36:58 23:44:11 39° 92° (E) 23:51:51 435.465 / 435.565
GONETS M04 05 Dec 23:38:01 23:45:52 36° 93° (E) 23:53:36
ESTCUBE 1 05 Dec 23:43:26 23:47:19 29° 258° (WSW) 23:51:10 437.505/2401.250
AISAT 05 Dec 23:51:48 23:56:10 65° 258° (WSW) 00:00:31 437.250
BUGSAT 1 05 Dec 23:59:06 00:03:10 76° 101° (E) 00:07:14 437.445
50 SAT 06 Dec 00:12:11 00:15:21 31° 258° (WSW) 00:18:30 437.505
NANOSAT C BR1 06 Dec 00:14:11 00:16:49 16° 282° (WNW) 00:19:27 145.865
QB50P2 06 Dec 00:20:46 00:22:08 11° 282° (WNW) 00:23:30 145.880/145.840
CUBEBUG 1 06 Dec 00:20:57 00:23:40 16° 258° (WSW) 00:26:21 437.445
POLYITAN 1 06 Dec 00:21:01 00:22:41 12° 282° (WNW) 00:24:20 437.675
Gurwin Techsat 1B 06 Dec 00:29:34 00:30:59 11° 103° (ESE) 00:32:24 435.225
VELOX 1 06 Dec 00:29:48 00:33:05 21° 258° (WSW) 00:36:21 145.980
Oscar 19 06 Dec 00:34:24 00:39:03 34° 103° (ESE) 00:43:42 437.125/150
DX 1 06 Dec 00:44:25 00:48:06 27° 258° (WSW) 00:51:47 434.975-435.025
UKube-1 06 Dec 00:52:27 00:56:14 30° 257° (WSW) 01:00:02 .
TISAT 1 06 Dec 00:53:56 00:58:00 48° 78° (ENE) 01:02:04 437.305
SRMSAT 06 Dec 01:04:49 01:08:29 16° 193° (SSW) 01:12:10 437.500
AO-85 06 Dec 01:07:25 01:12:14 35° 291° (WNW) 01:16:52 145.980
Cosmos 2499 06 Dec 01:30:46 01:36:59 25° 275° (W) 01:43:33 435.465 / 435.565
GONETS M04 06 Dec 01:35:07 01:42:15 28° 273° (W) 01:49:24
AUBIESAT-1 06 Dec 02:02:43 02:06:15 50° 74° (ENE) 02:10:04 437.475
Gurwin Techsat 1B 06 Dec 02:05:36 02:10:38 45° 282° (WNW) 02:15:40 435.225
SWISSCUBE 06 Dec 02:09:21 02:14:09 74° 78° (ENE) 02:18:54 437.505
ISS 06 Dec 02:13:02 02:15:48 25° 234° (SW) 02:18:34 145.825
BEESAT 06 Dec 02:13:27 02:18:14 73° 78° (ENE) 02:22:58 436.000
M-CUBED/EXP-1 PRIME 06 Dec 02:14:35 02:18:08 73° 254° (WSW) 02:21:59 437.505
Oscar 19 06 Dec 02:15:16 02:18:05 15° 283° (WNW) 02:20:54 437.125/150
O/OREOS (USA 219) 06 Dec 02:22:51 02:26:37 27° 76° (ENE) 02:30:23 437.305
BEESAT 3 06 Dec 02:34:46 02:35:58 11° 112° (ESE) 02:37:11 437.485
ITAMSAT 1 06 Dec 02:40:22 02:45:30 72° 103° (ESE) 02:50:40 435.822/435.867
ITUPSAT 1 06 Dec 02:40:56 02:45:34 50° 257° (WSW) 02:50:12 437.325
SRMSAT 06 Dec 02:57:59 02:58:42 10° 183° (S) 02:59:26 437.500
JUGNU 06 Dec 03:08:34 03:11:44 15° 168° (SSE) 03:14:55 437.505
AO-7 06 Dec 03:13:51 03:22:13 80° 106° (ESE) 03:30:35 29.400- 29.500
MOZHAYETS 4 06 Dec 03:23:10 03:27:48 81° 258° (WSW) 03:32:25
KKS-1 06 Dec 03:56:09 04:00:36 86° 253° (WSW) 04:05:04 437.445
STARS 06 Dec 04:03:24 04:07:34 42° 78° (ENE) 04:11:43 437.465
O/OREOS (USA 219) 06 Dec 04:04:00 04:05:44 12° 255° (WSW) 04:07:29 437.305
BEESAT 3 06 Dec 04:10:18 04:13:20 22° 292° (WNW) 04:16:23 437.485
RS-15 06 Dec 04:14:02 04:19:17 14° 112° (ESE) 04:24:36 29.354- 29.394
GOMX 1 06 Dec 04:24:56 04:27:13 13° 101° (E) 04:29:28 467.674
BEESAT 2 06 Dec 04:38:30 04:41:44 25° 292° (WNW) 04:44:59 435.950
BRITE-PL 06 Dec 04:43:49 04:49:29 70° 102° (ESE) 04:55:06 437.365/2234.400
SRMSAT 06 Dec 04:47:04 04:49:06 12° 173° (S) 04:51:07 437.500
JUGNU 06 Dec 04:56:05 05:01:18 31° 161° (SSE) 05:06:34 437.505
CUBESAT XI-V 06 Dec 05:02:12 05:06:35 44° 258° (WSW) 05:10:57 437.345
AO-7 06 Dec 05:12:01 05:14:29 12° 288° (WNW) 05:16:59 29.400- 29.500
HORYU 2 06 Dec 05:23:17 05:27:30 46° 282° (WNW) 05:31:43 437.375
Cosmos 2491 06 Dec 05:38:34 05:45:54 29° 93° (E) 05:53:08 435.465 / 435.565
YUBILEINY 06 Dec 05:38:50 05:45:42 25° 87° (E) 05:52:32 435.215
CUTE-I 06 Dec 05:51:22 05:56:38 69° 103° (ESE) 06:01:54 437.470
SO-50 06 Dec 05:57:39 06:01:27 28° 68° (ENE) 06:05:14 436.795
NOAA 18 06 Dec 05:58:23 06:03:37 46° 103° (ESE) 06:08:50 137.9125
GOMX 1 06 Dec 05:59:57 06:05:02 41° 282° (WNW) 06:09:58 467.674
DOVE 4 06 Dec 06:11:42 06:16:47 84° 284° (WNW) 06:21:36 437.250
NOAA 15 06 Dec 06:15:09 06:20:17 53° 283° (WNW) 06:25:27 137.62
Cubesat XI-IV 06 Dec 06:17:16 06:22:29 59° 283° (WNW) 06:27:43 437.490
RS-15 06 Dec 06:20:06 06:31:17 82° 291° (WNW) 06:43:06 29.354- 29.394
LilacSat-2 06 Dec 06:23:03 06:26:16 27° 281° (W) 06:29:29 437.200
CANX-2 06 Dec 06:26:54 06:29:03 14° 102° (ESE) 06:31:11 2200.000
SRMSAT 06 Dec 06:34:35 06:39:07 22° 164° (SSE) 06:43:39 437.500
JUGNU 06 Dec 06:44:28 06:50:27 84° 159° (SSE) 06:56:28 437.505
SEEDS 06 Dec 06:52:22 06:54:56 16° 102° (ESE) 06:57:32 437.485
Cosmos 2504 06 Dec 06:55:11 07:02:50 42° 86° (E) 07:09:59 435.465 / 435.565
STRAND 1 06 Dec 06:55:21 07:00:31 75° 78° (ENE) 07:05:39 437.568
AIST 2 06 Dec 07:03:11 07:06:49 33° 292° (WNW) 07:10:28 435.215
COMPASS 1 06 Dec 07:03:45 07:05:48 13° 102° (ESE) 07:07:53 437.405
AIST 1 06 Dec 07:10:09 07:14:29 63° 86° (E) 07:18:48
CINEMA 3 06 Dec 07:32:13 07:36:25 39° 282° (WNW) 07:40:27 145.822/145.860
YUBILEINY 06 Dec 07:34:00 07:42:05 41° 267° (W) 07:50:12 435.215
Cosmos 2491 06 Dec 07:34:32 07:42:20 36° 273° (W) 07:50:07 435.465 / 435.565
PHONESAT 2.4 06 Dec 07:38:29 07:38:56 10° 42° (NE) 07:39:23 2401.200-2431.200
SO-50 06 Dec 07:39:42 07:41:38 13° 247° (WSW) 07:43:36 436.795
HO-68 06 Dec 07:40:06 07:47:16 76° 284° (WNW) 07:54:28 435.675
NOAA 18 06 Dec 07:42:09 07:43:57 12° 284° (WNW) 07:45:47 137.9125
ZACube-1 06 Dec 07:42:17 07:43:18 11° 102° (ESE) 07:44:19 437.345
CUTE 1.7 + AOD 2 06 Dec 07:42:34 07:46:39 51° 281° (WNW) 07:50:48 437.475
FUNcube-1 06 Dec 07:49:17 07:51:06 13° 102° (ESE) 07:52:55 145.935
CUBEBUG 2 06 Dec 07:51:07 07:55:14 58° 102° (ESE) 07:59:19 437.445
PRISM 06 Dec 08:00:51 08:03:03 14° 78° (ENE) 08:05:16 437.425
CANX-2 06 Dec 08:01:16 08:04:36 23° 281° (WNW) 08:07:59 2200.000
AAUSAT CUBESAT 2 06 Dec 08:06:53 08:11:02 89° 101° (E) 08:15:14 437.432
Oscar 11 06 Dec 08:18:07 08:22:03 35° 102° (ESE) 08:25:59 145.826/435.025
SRMSAT 06 Dec 08:22:45 08:28:36 53° 159° (SSE) 08:34:25 437.500
DANDE 06 Dec 08:25:22 08:27:28 12° 102° (ESE) 08:29:26 436.750
SEEDS 06 Dec 08:27:20 08:30:21 19° 281° (WNW) 08:33:25 437.485
UWE-3 06 Dec 08:33:55 08:37:59 56° 281° (W) 08:42:03 435.000/436.395/437.385
JUGNU 06 Dec 08:34:07 08:39:34 36° 340° (NNW) 08:45:03 437.505
COMPASS 1 06 Dec 08:37:48 08:41:04 22° 281° (WNW) 08:44:22 437.405
Cosmos 2504 06 Dec 08:49:50 08:55:44 22° 268° (W) 09:01:25 435.465 / 435.565
TIGRISAT 06 Dec 08:59:58 09:02:41 15° 78° (ENE) 09:05:23 435.000
ANTELSAT 06 Dec 09:01:04 09:04:07 17° 78° (ENE) 09:07:09 437.575/2403.000
DELFI C3 06 Dec 09:06:53 09:10:44 47° 102° (ESE) 09:14:36 145.870
HUMSAT D 06 Dec 09:09:15 09:12:20 21° 102° (ESE) 09:15:27 437.325/437.525
PHONESAT 2.4 06 Dec 09:11:53 09:14:03 22° 222° (SW) 09:16:13 2401.200-2431.200
ZACube-1 06 Dec 09:15:52 09:19:19 26° 281° (WNW) 09:22:46 437.345
CUSAT 1 06 Dec 09:21:37 09:26:03 31° 270° (W) 09:29:32 437.405
FUNcube-1 06 Dec 09:23:51 09:27:04 22° 282° (WNW) 09:30:19 145.935
PRISM 06 Dec 09:35:08 09:38:05 20° 258° (WSW) 09:41:01 437.425
PCSat 06 Dec 09:46:33 09:51:47 53° 109° (ESE) 09:57:02 145.827
DANDE 06 Dec 10:03:47 10:10:31 53° 272° (W) 10:15:40 436.750
UNISAT 6 06 Dec 10:04:28 10:09:06 62° 258° (WSW) 10:13:44 437.425
SRMSAT 06 Dec 10:11:57 10:17:50 56° 339° (NNW) 10:23:40 437.500
ESTCUBE 1 06 Dec 10:21:30 10:24:44 19° 102° (ESE) 10:27:58 437.505/2401.250
JUGNU 06 Dec 10:25:28 10:29:06 16° 347° (NNW) 10:32:43 437.505
TIGRISAT 06 Dec 10:35:10 10:39:05 26° 258° (WSW) 10:42:59 435.000
ANTELSAT 06 Dec 10:36:48 10:40:32 24° 258° (WSW) 10:44:16 437.575/2403.000
NANOSAT C BR1 06 Dec 10:43:44 10:47:05 23° 78° (ENE) 10:50:26 145.865
HUMSAT D 06 Dec 10:45:38 10:47:41 14° 281° (WNW) 10:49:44 437.325/437.525
QB50P2 06 Dec 10:49:03 10:52:53 33° 78° (ENE) 10:56:44 145.880/145.840
POLYITAN 1 06 Dec 10:49:38 10:53:26 31° 78° (ENE) 10:57:13 437.675
CUBEBUG 1 06 Dec 10:53:53 10:57:40 28° 102° (ESE) 11:01:26 437.445
JAS-2 06 Dec 11:00:49 11:08:20 81° 76° (ENE) 11:14:59 435.910
QB50P1 06 Dec 11:02:21 11:06:28 47° 78° (ENE) 11:10:34 145.935-145.965
VELOX 1 06 Dec 11:04:48 11:08:23 24° 102° (ESE) 11:11:58 145.980
DUCHIFAT 1 06 Dec 11:05:15 11:09:17 42° 78° (ENE) 11:13:17 145.980
DX 1 06 Dec 11:18:59 11:21:44 16° 103° (ESE) 11:24:29 434.975-435.025
POPSAT HIP 1 06 Dec 11:23:41 11:27:58 83° 260° (W) 11:32:13 437.405
UKube-1 06 Dec 11:26:36 11:28:52 14° 103° (ESE) 11:31:06 .
SPROUT 06 Dec 11:37:30 11:41:29 39° 102° (ESE) 11:45:28 437.525
AO-85 06 Dec 11:41:24 11:44:08 18° 69° (ENE) 11:46:56 145.980
Cosmos 2499 06 Dec 11:47:38 11:55:15 49° 86° (E) 12:02:20 435.465 / 435.565
ESTCUBE 1 06 Dec 11:58:03 12:01:15 19° 282° (WNW) 12:04:28 437.505/2401.250
50 SAT 06 Dec 11:58:46 12:02:16 55° 281° (WNW) 12:05:48 437.505
BUGSAT 1 06 Dec 12:01:56 12:06:06 85° 78° (ENE) 12:10:18 437.445
SRMSAT 06 Dec 12:02:41 12:07:16 22° 343° (NNW) 12:11:49 437.500
AISAT 06 Dec 12:03:30 12:07:43 44° 282° (WNW) 12:11:57 437.250
GONETS M04 06 Dec 12:10:34 12:19:15 71° 87° (E) 12:28:00
JUGNU 06 Dec 12:19:03 12:19:08 10° 357° (N) 12:19:13 437.505
NANOSAT C BR1 06 Dec 12:20:19 12:22:32 14° 258° (WSW) 12:24:44 145.865
POLYITAN 1 06 Dec 12:28:39 12:28:56 10° 258° (WSW) 12:29:13 437.675
CUBEBUG 1 06 Dec 12:31:55 12:33:40 12° 282° (WNW) 12:35:24 437.445
VELOX 1 06 Dec 12:42:06 12:44:34 15° 282° (WNW) 12:47:03 145.980
DX 1 06 Dec 12:54:23 12:57:39 21° 282° (WNW) 13:00:55 434.975-435.025
TISAT 1 06 Dec 12:59:02 13:03:08 57° 102° (ESE) 13:07:13 437.305
UKube-1 06 Dec 13:01:09 13:04:37 24° 282° (WNW) 13:08:05 .
Gurwin Techsat 1B 06 Dec 13:04:45 13:09:29 33° 77° (ENE) 13:14:12 435.225
Oscar 19 06 Dec 13:07:39 13:12:47 88° 78° (ENE) 13:17:54 437.125/150
AO-85 06 Dec 13:22:05 13:24:17 14° 246° (WSW) 13:26:32 145.980
ITUPSAT 1 06 Dec 13:27:14 13:30:10 16° 103° (ESE) 13:33:06 437.325
ITAMSAT 1 06 Dec 13:39:39 13:41:23 12° 77° (ENE) 13:43:07 435.822/435.867
Cosmos 2499 06 Dec 13:43:18 13:47:50 17° 268° (W) 13:52:15 435.465 / 435.565
ISS 06 Dec 13:46:46 13:49:52 41° 306° (NW) 13:52:57 145.825
AO-7 06 Dec 13:52:01 13:56:17 15° 73° (ENE) 14:00:32 29.400- 29.500
SRMSAT 06 Dec 13:55:16 13:57:13 12° 352° (N) 13:59:11 437.500
AUBIESAT-1 06 Dec 14:01:55 14:06:03 50° 105° (ESE) 14:09:54 437.475
JUGNU 06 Dec 14:07:29 14:09:22 11° 7° (N) 14:11:14 437.505
GONETS M04 06 Dec 14:12:27 14:15:43 12° 267° (W) 14:18:59
M-CUBED/EXP-1 PRIME 06 Dec 14:14:08 14:18:29 77° 286° (WNW) 14:22:32 437.505
BEESAT 3 06 Dec 14:26:30 14:28:00 12° 68° (ENE) 14:29:31 437.485
SWISSCUBE 06 Dec 14:31:19 14:35:57 56° 282° (WNW) 14:40:37 437.505
O/OREOS (USA 219) 06 Dec 14:33:16 14:37:42 48° 104° (ESE) 14:42:06 437.305
BEESAT 06 Dec 14:35:20 14:39:59 57° 282° (WNW) 14:44:39 436.000
Gurwin Techsat 1B 06 Dec 14:46:02 14:49:08 16° 257° (WSW) 14:52:14 435.225
BEESAT 2 06 Dec 14:56:18 14:57:28 11° 68° (ENE) 14:58:38 435.950
ITUPSAT 1 06 Dec 15:03:50 15:07:43 25° 282° (WNW) 15:11:38 437.325
ITAMSAT 1 06 Dec 15:15:38 15:20:34 42° 257° (WSW) 15:25:28 435.822/435.867
MOZHAYETS 4 06 Dec 15:39:58 15:44:19 47° 282° (WNW) 15:48:44
AO-7 06 Dec 15:40:26 15:48:37 66° 254° (WSW) 15:56:49 29.400- 29.500
CUBESAT XI-V 06 Dec 15:44:53 15:47:37 15° 102° (ESE) 15:50:22 437.345
